Location: Ecklingerode
(51.5036°N, 10.3122°E)
Time: 01:40:55
(UTC+00:00)

SKYMED 2 - Pass Details

Date: 29 October 2020
Orbit: 621 x 623 km, 97.9° (Epoch: 23 November)

Event Time Altitude Azimuth Distance (km) Brightness Sun altitude
Rises 17:48:05 0° 12° (NNE) 2,917 6.9 -17.8°
Reaches altitude 10° 17:50:17 10° 11° (N) 2,006 6.1 -18.2°
Maximum altitude 17:54:38 73° 287° (WNW) 655 3.8 -18.8°
Drops below altitude 10° 17:58:57 10° 203° (SSW) 1,989 6.4 -19.5°
Sets 18:01:08 0° 202° (SSW) 2,890 7.2 -19.8°
